EW5545 Weather Reports


time (UTC)temp
C
wind
direction
speed
KPH
gust
KPH
rain 1hr
cm
rain 24hr
cm
rain mn
cm
humidity
%
barometer
mb
20260503225508 12 226 0.0 1.6 0.00 0.00 0.00 69 1017.6
20260503225006 12 226 0.0 1.6 0.00 0.00 0.00 70 1017.6
20260503224506 11 226 1.6 3.2 0.00 0.00 0.00 70 1017.6
20260503224010 11 226 1.6 3.2 0.00 0.00 0.00 70 1017.6
20260503223507 11 226 1.6 4.8 0.00 0.00 0.00 70 1017.6
20260503223011 11 222 0.0 1.6 0.00 0.00 0.00 70 1017.6
20260503222507 11 222 0.0 0.0 0.00 0.00 0.00 70 1017.6
20260503221506 12 222 0.0 0.0 0.00 0.00 0.00 68 1017.6
20260503221006 12 222 0.0 0.0 0.00 0.00 0.00 67 1017.6
20260503220505 12 222 0.0 0.0 0.00 0.00 0.00 68 1017.6
20260503220009 12 222 0.0 1.6 0.00 0.00 0.00 66 1017.6
20260503215511 12 222 0.0 0.0 0.00 0.00 0.00 66 1017.6
20260503215006 13 222 0.0 0.0 0.00 0.00 0.00 65 1017.5
20260503214506 13 222 0.0 0.0 0.00 0.00 0.00 64 1017.5
20260503214007 13 222 0.0 0.0 0.00 0.00 0.00 64 1017.5
20260503213516 13 222 0.0 3.2 0.00 0.00 0.00 64 1017.5
20260503213005 13 221 1.6 4.8 0.00 0.00 0.00 64 1017.4
20260503212506 13 215 1.6 3.2 0.00 0.00 0.00 63 1017.4
20260503211507 12 203 0.0 1.6 0.00 0.00 0.00 63 1017.4
20260503211007 12 202 1.6 3.2 0.00 0.00 0.00 63 1017.4
20260503210006 12 201 0.0 1.6 0.00 0.00 0.00 63 1017.3
20260503205005 12 201 0.0 1.6 0.00 0.00 0.00 65 1017.4
20260503204510 11 201 0.0 1.6 0.00 0.00 0.00 66 1017.3
20260503204006 11 201 0.0 4.8 0.00 0.00 0.00 67 1017.4
20260503203005 12 147 0.0 3.2 0.00 0.00 0.00 65 1017.3
20260503202507 12 235 0.0 3.2 0.00 0.00 0.00 64 1017.3
20260503202005 12 235 1.6 3.2 0.00 0.00 0.00 63 1017.2
20260503201006 12 237 1.6 3.2 0.00 0.00 0.00 63 1017.2
20260503200506 12 237 1.6 3.2 0.00 0.00 0.00 64 1017.2
20260503200005 12 237 1.6 3.2 0.00 0.00 0.00 65 1017.1
20260503195506 12 237 1.6 3.2 0.00 0.00 0.00 66 1017.1
20260503194507 12 237 1.6 3.2 0.00 0.00 0.00 69 1017.0
20260503193507 12 235 3.2 3.2 0.00 0.00 0.00 68 1017.0
20260503193011 12 235 3.2 4.8 0.00 0.00 0.00 68 1017.0
20260503192506 12 235 3.2 3.2 0.00 0.00 0.00 67 1016.9
20260503192007 13 238 3.2 3.2 0.00 0.00 0.00 66 1016.9
20260503191505 13 234 3.2 3.2 0.00 0.00 0.00 65 1016.8
20260503190007 13 235 1.6 3.2 0.00 0.00 0.00 64 1016.7
20260503185005 14 237 3.2 3.2 0.00 0.00 0.00 62 1016.7
20260503184505 14 236 1.6 3.2 0.00 0.00 0.00 61 1016.7
20260503184007 15 231 3.2 3.2 0.00 0.00 0.00 59 1016.6
20260503183506 15 230 0.0 1.6 0.00 0.00 0.00 57 1016.6
20260503182507 15 230 1.6 4.8 0.00 0.00 0.00 56 1016.6
20260503182007 16 246 1.6 4.8 0.00 0.00 0.00 51 1016.6
20260503181510 17 263 0.0 0.0 0.00 0.00 0.00 48 1016.5
20260503180510 17 334 0.0 0.0 0.00 0.00 0.00 46 1016.5
20260503175505 17 333 0.0 0.0 0.00 0.00 0.00 44 1016.5
20260503175007 18 14 0.0 1.6 0.00 0.00 0.00 44 1016.5
20260503174005 18 243 0.0 1.6 0.00 0.00 0.00 43 1016.6
20260503173005 18 31 0.0 1.6 0.00 0.00 0.00 41 1016.5
20260503172008 19 31 1.6 4.8 0.00 0.00 0.00 39 1016.5
20260503171505 20 38 0.0 1.6 0.00 0.00 0.00 38 1016.5
20260503171007 20 38 0.0 3.2 0.00 0.00 0.00 38 1016.5
20260503131007 21 47 11.3 25.7 0.00 0.00 0.00 40 1017.2
20260503130506 21 51 14.5 22.5 0.00 0.00 0.00 38 1017.2
20260503110507 21 46 16.1 27.4 0.00 0.00 0.00 32 1017.5
20260503090510 20 39 11.3 22.5 0.00 0.00 0.00 34 1017.9
20260503081505 20 24 4.8 19.3 0.00 0.00 0.00 38 1017.8
20260503081011 19 43 6.4 19.3 0.00 0.00 0.00 38 1017.8
20260503080505 19 39 6.4 22.5 0.00 0.00 0.00 39 1017.8
20260503072007 18 46 8.0 12.9 0.00 0.00 0.00 42 1017.9
20260503071506 18 41 8.0 14.5 0.00 0.00 0.00 42 1017.9
20260503071006 18 38 8.0 19.3 0.00 0.00 0.00 42 1017.8
20260503070506 18 27 8.0 16.1 0.00 0.00 0.00 42 1017.8
20260503055007 16 333 4.8 9.7 0.00 0.00 0.00 45 1017.8
20260503054006 15 35 1.6 4.8 0.00 0.00 0.00 48 1017.7
20260503053507 15 290 3.2 4.8 0.00 0.00 0.00 49 1017.7
20260503053005 15 269 1.6 4.8 0.00 0.00 0.00 51 1017.6
20260503052505 14 252 1.6 4.8 0.00 0.00 0.00 51 1017.6
20260503052007 13 258 0.0 3.2 0.00 0.00 0.00 53 1017.6
20260503051507 13 261 1.6 4.8 0.00 0.00 0.00 53 1017.6
20260503051008 13 268 0.0 4.8 0.00 0.00 0.00 53 1017.6
20260503050505 13 262 1.6 4.8 0.00 0.00 0.00 54 1017.6
20260503050007 12 257 0.0 4.8 0.00 0.00 0.00 55 1017.5
20260503045506 12 244 0.0 4.8 0.00 0.00 0.00 56 1017.5
20260503045007 12 237 1.6 4.8 0.00 0.00 0.00 56 1017.5
20260503044505 12 246 1.6 4.8 0.00 0.00 0.00 57 1017.5
20260503044007 11 249 3.2 8.0 0.00 0.00 0.00 57 1017.5
20260503043507 11 231 1.6 4.8 0.00 0.00 0.00 58 1017.6
20260503043005 11 235 1.6 4.8 0.00 0.00 0.00 58 1017.6
20260503042510 11 230 0.0 3.2 0.00 0.00 0.00 58 1017.5
20260503042007 11 245 0.0 4.8 0.00 0.00 0.00 58 1017.5
20260503040507 11 256 0.0 4.8 0.00 0.00 0.00 58 1017.5
20260503035507 11 248 1.6 4.8 0.00 0.00 0.00 58 1017.5
20260503035006 11 246 0.0 8.0 0.00 0.00 0.00 58 1017.5
20260503034505 11 244 1.6 4.8 0.00 0.00 0.00 58 1017.5
20260503034007 11 241 1.6 4.8 0.00 0.00 0.00 58 1017.5
20260503033506 11 263 0.0 3.2 0.00 0.00 0.00 58 1017.5
20260503032507 11 252 0.0 4.8 0.00 0.00 0.00 58 1017.5
20260503032006 11 241 1.6 4.8 0.00 0.00 0.00 58 1017.5
20260503031008 11 239 0.0 1.6 0.00 0.00 0.00 58 1017.5
20260503030508 11 243 0.0 3.2 0.00 0.00 0.00 58 1017.5
20260503030007 11 281 1.6 4.8 0.00 0.00 0.00 57 1017.5
20260503023507 11 248 0.0 1.6 0.00 0.00 0.00 56 1017.6
20260503023006 11 254 0.0 3.2 0.00 0.00 0.00 56 1017.6
20260503022506 12 254 1.6 8.0 0.00 0.00 0.00 56 1017.7
20260503022006 11 250 3.2 8.0 0.00 0.00 0.00 56 1017.6
20260503021011 12 253 3.2 4.8 0.00 0.00 0.00 55 1017.7
20260503020507 12 247 1.6 4.8 0.00 0.00 0.00 55 1017.7
20260503020015 12 244 1.6 4.8 0.00 0.00 0.00 55 1017.7
20260503015506 12 249 3.2 8.0 0.00 0.00 0.00 55 1017.7
20260503015007 12 240 1.6 4.8 0.00 0.00 0.00 55 1017.8
20260503014007 12 224 1.6 8.0 0.00 0.00 0.00 54 1017.9
20260503013505 12 264 4.8 11.3 0.00 0.00 0.00 54 1017.9
20260503013007 12 254 3.2 9.7 0.00 0.00 0.00 54 1017.9
20260503012505 12 262 1.6 8.0 0.00 0.00 0.00 54 1018.0
20260503012007 12 263 3.2 8.0 0.00 0.00 0.00 54 1018.1
20260503011505 12 265 3.2 9.7 0.00 0.00 0.00 55 1018.1
20260503011005 12 24 1.6 8.0 0.00 0.00 0.00 55 1018.1
20260503010506 12 252 1.6 8.0 0.00 0.00 0.00 55 1018.2
20260503010005 12 254 1.6 8.0 0.00 0.00 0.00 54 1018.2
20260503005506 12 232 1.6 4.8 0.00 0.00 0.00 54 1018.3
20260503005007 12 260 1.6 4.8 0.00 0.00 0.00 54 1018.4
20260503004506 12 240 1.6 4.8 0.00 0.00 0.00 54 1018.4
20260503003506 12 245 1.6 4.8 0.00 0.00 0.00 54 1018.5
20260503003008 12 245 3.2 4.8 0.00 0.00 0.00 53 1018.5
20260503002505 12 253 3.2 4.8 0.00 0.00 0.00 53 1018.5
20260503002005 12 247 4.8 8.0 0.00 0.00 0.00 53 1018.5
20260503001507 12 263 4.8 12.9 0.00 0.00 0.00 52 1018.6
20260503001011 12 248 4.8 9.7 0.00 0.00 0.00 52 1018.6
20260503000507 12 262 3.2 4.8 0.00 0.00 0.00 51 1018.7
20260503000006 12 249 1.6 4.8 0.00 0.00 0.00 51 1018.8
20260502235507 12 271 1.6 4.8 0.00 0.00 0.00 51 1018.8
20260502234007 12 229 1.6 4.8 0.00 0.00 0.00 52 1019.0
20260502233506 12 303 1.6 8.0 0.00 0.00 0.00 52 1019.1
20260502232505 12 266 0.0 4.8 0.00 0.00 0.00 52 1019.2
20260502232006 12 260 1.6 4.8 0.00 0.00 0.00 52 1019.3
20260502231506 12 256 1.6 4.8 0.00 0.00 0.00 52 1019.3
20260502231007 11 254 1.6 4.8 0.00 0.00 0.00 53 1019.4
20260502230507 11 238 0.0 4.8 0.00 0.00 0.00 54 1019.4
20260502230007 11 260 1.6 8.0 0.00 0.00 0.00 54 1019.5